Weather History for KHWY - November, 2012

Change the Weather History Date:

Sunday, November 18, 2012

  Actual Average (KHEF) Record (KHEF)
Temperature  
Mean Temperature 43 °F -  
Max Temperature 55 °F 54 °F 69 °F (2013)
Min Temperature 31 °F 30 °F 17 °F (1997)
Degree Days  
Heating Degree Days 22    
Moisture  
Dew Point 40 °F    
Average Humidity 83    
Maximum Humidity 100    
Minimum Humidity 68    
Precipitation  
Precipitation 0.00 in - - ()
Sea Level Pressure  
Sea Level Pressure 30.55 in    
Wind  
Wind Speed 4 mph (NNE)    
Max Wind Speed 10 mph    
Max Gust Speed -    
Visibility 10 miles    
Events      
Averages and records for this station are not official NWS values.
T = Trace of Precipitation, MM = Missing Value Source: NWS Daily Summary

Daily Weather History Graph

Daily Weather History Graph

Search for Another Location

Airport or City:

Trip Planner

Search our weather history database for the weather conditions in past years. The results will help you decide how hot, cold, wet, or windy it might be!

Date:

Astronomy

Nov. 18, 2012 Rise Set
Actual Time 6:56 AM EST 4:55 PM EST
Civil Twilight 6:28 AM EST 5:23 PM EST
Nautical Twilight 5:55 AM EST 5:56 PM EST
Astronomical Twilight 5:24 AM EST 6:27 PM EST
Moon 11:22 AM EST (11/18) 10:11 PM EST (11/18)
Length of Visible Light 10h 55m
Length of Day
9h 58m
Waxing Crescent, 30% of the Moon is Illuminated
Nov 18
Waxing Crescent
Nov 20
First Quarter
Nov 28
Full
Dec 6
Last Quarter
Dec 13
New

Hourly Weather History & Observations

Time (EST) Temp. Windchill Dew Point Humidity Pressure Visibility Wind Dir Wind Speed Gust Speed Precip Events Conditions
12:15 AM 33.3 °F - 33.3 °F 100% 30.57 in 10.0 mi Calm Calm - N/A   Scattered Clouds
12:35 AM 33.1 °F - 33.1 °F 100% 30.57 in 10.0 mi Calm Calm - N/A   Mostly Cloudy
12:55 AM 34.5 °F - 34.5 °F 100% 30.57 in 10.0 mi Calm Calm - N/A   Overcast
1:15 AM 35.8 °F - 35.8 °F 100% 30.57 in 10.0 mi Calm Calm - N/A   Overcast
1:35 AM 35.8 °F 33.0 °F 35.6 °F 99% 30.56 in 10.0 mi NNE 3.5 mph - N/A   Scattered Clouds
1:55 AM 36.1 °F 33.5 °F 34.0 °F 92% 30.56 in 10.0 mi NE 3.5 mph - N/A   Clear
2:15 AM 36.0 °F 33.3 °F 33.3 °F 90% 30.57 in 10.0 mi NNE 3.5 mph - N/A   Clear
2:35 AM 33.6 °F 30.6 °F 33.1 °F 98% 30.57 in 10.0 mi NNE 3.5 mph - N/A   Clear
2:55 AM 33.3 °F 30.2 °F 32.5 °F 97% 30.57 in 10.0 mi North 3.5 mph - N/A   Clear
3:15 AM 34.0 °F 31.0 °F 32.9 °F 96% 30.56 in 10.0 mi NNE 3.5 mph - N/A   Clear
3:55 AM 38.8 °F 35.4 °F 35.8 °F 89% 30.56 in 10.0 mi NNE 4.6 mph - N/A   Scattered Clouds
4:15 AM 39.9 °F - 36.3 °F 87% 30.57 in 10.0 mi Calm Calm - N/A   Clear
4:35 AM 32.9 °F - 32.4 °F 98% 30.57 in 10.0 mi Calm Calm - N/A   Clear
4:55 AM 34.2 °F 31.2 °F 33.4 °F 97% 30.57 in 10.0 mi NNE 3.5 mph - N/A   Clear
5:15 AM 36.5 °F 33.9 °F 36.5 °F 100% 30.58 in 10.0 mi NNE 3.5 mph - N/A   Clear
5:35 AM 37.8 °F 34.2 °F 37.2 °F 98% 30.57 in 10.0 mi NNE 4.6 mph - N/A   Clear
5:55 AM 38.3 °F 34.8 °F 37.0 °F 95% 30.58 in 10.0 mi NNE 4.6 mph - N/A   Clear
6:15 AM 38.7 °F 36.3 °F 37.6 °F 96% 30.58 in 10.0 mi NE 3.5 mph - N/A   Clear
6:35 AM 32.9 °F - 32.7 °F 99% 30.58 in 10.0 mi Calm Calm - N/A   Clear
6:55 AM 32.5 °F - 32.5 °F 100% 30.58 in 5.0 mi Calm Calm - N/A   Clear
7:15 AM 31.5 °F - 31.5 °F 100% 30.58 in 4.0 mi Calm Calm - N/A   Clear
7:35 AM 35.8 °F 33.0 °F 35.8 °F 100% 30.59 in 10.0 mi NNE 3.5 mph - N/A   Clear
7:55 AM 39.2 °F 35.9 °F 38.5 °F 97% 30.59 in 10.0 mi NNE 4.6 mph - N/A   Clear
8:15 AM 41.0 °F 38.0 °F 39.4 °F 94% 30.59 in 10.0 mi NNE 4.6 mph - N/A   Clear
8:35 AM 43.7 °F 39.7 °F 40.8 °F 90% 30.59 in 10.0 mi NNE 6.9 mph - N/A   Clear
8:55 AM 45.7 °F 40.6 °F 41.7 °F 86% 30.59 in 10.0 mi NNE 10.4 mph - N/A   Clear
9:15 AM 46.4 °F 41.5 °F 41.9 °F 84% 30.58 in 10.0 mi NNE 10.4 mph - N/A   Clear
9:35 AM 47.7 °F - 42.1 °F 81% 30.58 in 10.0 mi NNE 8.1 mph - N/A   Clear
9:55 AM 47.7 °F - 41.4 °F 79% 30.59 in 10.0 mi NNE 10.4 mph - N/A   Clear
10:15 AM 47.3 °F - 41.0 °F 79% 30.59 in 10.0 mi NE 8.1 mph - N/A   Clear
10:35 AM 47.8 °F - 41.5 °F 79% 30.59 in 10.0 mi NNE 9.2 mph - N/A   Clear
10:55 AM 48.4 °F - 41.9 °F 78% 30.59 in 10.0 mi NE 6.9 mph - N/A   Clear
11:15 AM 49.3 °F - 42.3 °F 77% 30.58 in 10.0 mi NNE 6.9 mph - N/A   Clear
11:35 AM 50.0 °F - 42.4 °F 75% 30.57 in 10.0 mi NNE 6.9 mph - N/A   Clear
11:55 AM 50.9 °F - 43.3 °F 75% 30.56 in 10.0 mi North 5.8 mph - N/A   Clear
12:15 PM 52.7 °F - 43.9 °F 72% 30.55 in 10.0 mi NE 5.8 mph - N/A   Clear
12:35 PM 53.1 °F - 44.2 °F 72% 30.54 in 10.0 mi NE 6.9 mph - N/A   Clear
12:55 PM 52.9 °F - 43.9 °F 71% 30.54 in 10.0 mi NE 8.1 mph - N/A   Clear
1:15 PM 54.1 °F - 44.8 °F 71% 30.52 in 10.0 mi NNE 8.1 mph - N/A   Clear
1:35 PM 54.5 °F - 44.6 °F 69% 30.51 in 10.0 mi NNE 6.9 mph - N/A   Clear
1:55 PM 54.7 °F - 45.0 °F 70% 30.51 in 10.0 mi NNE 8.1 mph - N/A   Clear
2:15 PM 55.6 °F - 45.1 °F 68% 30.51 in 10.0 mi NE 9.2 mph - N/A   Clear
2:55 PM 54.5 °F - 44.4 °F 69% 30.50 in 10.0 mi NE 8.1 mph - N/A   Clear
3:15 PM 54.9 °F - 44.6 °F 68% 30.50 in 10.0 mi NE 8.1 mph - N/A   Clear
3:35 PM 54.0 °F - 44.1 °F 69% 30.50 in 10.0 mi NE 9.2 mph - N/A   Clear
3:55 PM 53.6 °F - 43.9 °F 70% 30.51 in 10.0 mi NNE 6.9 mph - N/A   Clear
4:15 PM 52.9 °F - 43.9 °F 71% 30.50 in 10.0 mi NE 5.8 mph - N/A   Mostly Cloudy
4:35 PM 52.7 °F - 44.1 °F 72% 30.50 in 10.0 mi NNE 6.9 mph - N/A   Overcast
4:55 PM 52.3 °F - 43.9 °F 73% 30.50 in 10.0 mi NNE 6.9 mph - N/A   Overcast
5:15 PM 51.8 °F - 43.7 °F 74% 30.51 in 10.0 mi NE 5.8 mph - N/A   Overcast
5:35 PM 51.8 °F - 43.3 °F 73% 30.51 in 10.0 mi NE 5.8 mph - N/A   Overcast
5:55 PM 51.4 °F - 43.2 °F 73% 30.51 in 10.0 mi NE 5.8 mph - N/A   Overcast
6:15 PM 50.9 °F - 43.3 °F 75% 30.51 in 10.0 mi NNE 5.8 mph - N/A   Overcast
6:35 PM 50.4 °F - 43.7 °F 78% 30.52 in 10.0 mi NNE 3.5 mph - N/A   Overcast
6:55 PM 50.2 °F - 43.7 °F 78% 30.52 in 10.0 mi NE 4.6 mph - N/A   Overcast
7:15 PM 50.4 °F - 43.7 °F 78% 30.52 in 10.0 mi NE 5.8 mph - N/A   Overcast
7:55 PM 50.4 °F - 43.7 °F 78% 30.53 in 10.0 mi NE 6.9 mph - N/A   Overcast
8:15 PM 50.2 °F - 43.9 °F 79% 30.53 in 10.0 mi NE 8.1 mph - N/A   Overcast
8:35 PM 50.0 °F - 43.9 °F 79% 30.53 in 10.0 mi NNE 6.9 mph - N/A   Overcast
8:55 PM 50.0 °F - 43.9 °F 79% 30.52 in 10.0 mi NNE 8.1 mph - N/A   Overcast
9:15 PM 50.0 °F - 43.7 °F 79% 30.52 in 10.0 mi NNE 9.2 mph - N/A   Overcast
9:35 PM 49.6 °F - 43.7 °F 80% 30.51 in 10.0 mi NNE 6.9 mph - N/A   Overcast
9:55 PM 49.5 °F - 43.7 °F 81% 30.51 in 10.0 mi NNE 6.9 mph - N/A   Overcast
10:15 PM 49.3 °F - 43.3 °F 80% 30.51 in 10.0 mi NE 6.9 mph - N/A   Overcast
10:35 PM 49.1 °F - 43.3 °F 81% 30.51 in 10.0 mi NE 5.8 mph - N/A   Overcast
10:55 PM 49.1 °F - 43.3 °F 81% 30.50 in 10.0 mi NE 6.9 mph - N/A   Overcast
11:15 PM 48.9 °F - 43.3 °F 81% 30.49 in 10.0 mi NNE 6.9 mph - N/A   Overcast
11:35 PM 49.1 °F - 43.5 °F 81% 30.50 in 10.0 mi North 5.8 mph - N/A   Overcast
11:55 PM 48.9 °F - 43.3 °F 81% 30.49 in 10.0 mi North 5.8 mph - N/A   Overcast